Zurück zum Katalog

NEXTSAT-2

AktivWissenschaftSSO
NORAD 56743·PAYLOAD·🇰🇷 South Korea

Gestartet May 25, 2023 von Naro Space Center

Loading…

Nächste Überflüge (nächste 24 Stunden)

TLE

AktuellSource: Space-Track

Epoche: Sep 14, 2026, 14:29 UTC

1 56743U 23072A   26257.60350875  .00005365  00000-0  19326-3 0  9998
2 56743  97.5198  95.4710 0006922  69.3570 290.8412 15.28980690183254

Verfolge NEXTSAT-2 in Echtzeit mit AllMySat

Download on the App Store